Location: Liège
(50.6326°N, 5.5797°E)
Time: 17:04:41
(UTC+02:00)

ISS - Visible Passes

Search period start: 23 May 2018 00:00
Search period end: 02 June 2018 00:00
Orbit: 402 x 407 km, 51.6° (Epoch: 24 May)

Date Brightness Start Highest point End Pass type
(mag) Time Alt. Az. Time Alt. Az. Time Alt. Az.
23 May -3.7 00:36:41 10° W 00:39:58 76° N 00:43:14 10° E visible
23 May -3.9 02:13:15 10° WNW 02:16:32 89° NNE 02:19:49 10° ESE visible
23 May -3.0 03:49:55 10° W 03:52:48 29° SSW 03:55:41 10° SSE visible
23 May -3.0 22:08:34 10° SSW 22:11:29 30° SSE 22:14:23 10° E visible
23 May -3.9 23:44:28 10° WSW 23:47:45 89° NNW 23:51:02 10° ENE visible
24 May -3.8 01:21:03 10° W 01:24:21 77° N 01:27:37 10° E visible
24 May -3.4 02:57:37 10° W 03:00:18 40° SW 03:00:18 40° SW visible
24 May -3.9 22:52:18 10° WSW 22:55:34 72° SSE 22:58:49 10° ENE visible
25 May -3.6 00:28:50 10° W 00:32:06 72° N 00:35:22 10° E visible
25 May -3.8 02:05:22 10° WNW 02:08:18 58° SW 02:08:18 58° SW visible
25 May -3.6 23:36:35 10° W 23:39:51 74° N 23:43:08 10° E visible
26 May -4.0 01:13:08 10° WNW 01:16:26 84° SSW 01:17:14 48° ESE visible
26 May -3.8 22:44:20 10° W 22:47:37 83° N 22:50:54 10° ENE visible
27 May -3.8 00:20:55 10° WNW 00:24:12 80° N 00:26:23 19° E visible
27 May -2.2 01:57:29 10° W 01:59:01 23° W 01:59:01 23° W visible
27 May -3.6 23:28:39 10° W 23:31:56 72° N 23:35:12 10° E visible
28 May -3.8 01:05:11 10° WNW 01:08:17 55° SW 01:08:17 55° SW visible
28 May -3.6 22:36:22 10° W 22:39:39 72° N 22:42:55 10° E visible
29 May -4.0 00:12:56 10° WNW 00:16:13 77° SSW 00:17:36 31° ESE visible
29 May -1.4 01:49:46 10° W 01:50:14 13° W 01:50:14 13° W visible
29 May -3.8 23:20:39 10° WNW 23:23:56 85° N 23:26:58 12° E visible
30 May -2.7 00:57:16 10° W 00:59:35 29° WSW 00:59:35 29° WSW visible
30 May -3.6 22:28:21 10° W 22:31:39 74° N 22:34:55 10° E visible
31 May -3.6 00:04:54 10° W 00:08:05 49° SSW 00:08:59 36° SSE visible
31 May -3.9 23:12:35 10° WNW 23:15:51 69° SSW 23:18:24 15° ESE visible
01 Jun -1.8 00:49:34 10° W 00:51:01 17° WSW 00:51:01 17° WSW visible
